Location: �perlecques
(50.8057°N, 2.1521°E)
Time: 19:32:57
(UTC+00:00)

Vanguard 3 - Pass Details

Date: 02 August 2021
Orbit: 510 x 3260 km, 33.3° (Epoch: 17 September)

Event Time Altitude Azimuth Distance (km) Brightness Sun altitude
Rises 23:24:06 0° 274° (W) 7,037 12.1 -21.3°
Reaches altitude 10° 23:30:22 10° 262° (W) 6,168 11.6 -21.4°
Maximum altitude 23:43:11 22° 221° (SW) 5,102 10.8 -21.6°
Enters shadow 23:47:21 20° 205° (SSW) 5,081 10.6 -21.7°
